Bookmark and Share
Track history (hours):
 

Ryuhomaru

Last reported at 2014-Apr-24 05:33 UTC. Time now 2014-Apr-24 05:59 UTC.
Position N 34°33' E 135°21'.

Length 42 m; draft 3.5 m.

Type: Tug. MMSI: 431000586.

NotesDate/timePositionNaut miles runAvg speedWind from/ knotsBaromVisibWave heightAir tempDewpointWater temp
2014-Apr-24 05:33N 34°33' E 135°21'3 2.9
2014-Apr-24 04:29N 34°34' E 135°24'2 2.1
2014-Apr-24 03:33N 34°36' E 135°24'3 2.6
2014-Apr-24 02:33N 34°33' E 135°24'2 2.1
2014-Apr-24 01:33N 34°33' E 135°26'0 0.4
2014-Apr-24 00:33N 34°33' E 135°27'0 0.0
2014-Apr-23 23:33N 34°33' E 135°27'0 0.0
2014-Apr-23 09:34N 34°33' E 135°27'8 8.2
2014-Apr-23 08:33N 34°30' E 135°18'15 6.5
2014-Apr-23 06:15N 34°23' E 135°01'1115.4
2014-Apr-23 05:33N 34°29' E 135°12'1211.3
2014-Apr-23 04:32N 34°33' E 135°25'1 1.1
2014-Apr-23 03:34N 34°33' E 135°26'0 0.5
2014-Apr-23 02:32N 34°33' E 135°27'0 0.0
2014-Apr-23 01:34N 34°33' E 135°27'0 0.0
2014-Apr-23 00:33N 34°33' E 135°27'2 2.0
2014-Apr-22 23:33N 34°34' E 135°24'1 0.7
2014-Apr-22 22:31N 34°33' E 135°24'6 6.4
2014-Apr-22 21:33N 34°32' E 135°16'1212.3
2014-Apr-22 20:32N 34°24' E 135°05'1312.7
2014-Apr-22 19:33N 34°12' E 134°59'5 5.2
2014-Apr-22 18:31N 34°18' E 134°59'1111.5
2014-Apr-22 17:33N 34°26' E 135°07'1313.5
2014-Apr-22 16:33N 34°32' E 135°22'4 3.9
2014-Apr-22 15:33N 34°33' E 135°27'0 0.0
2014-Apr-22 14:33N 34°33' E 135°27'0 0.0
2014-Apr-22 13:33N 34°33' E 135°27'0 0.0
2014-Apr-22 12:33N 34°33' E 135°27'0 0.0
2014-Apr-22 11:33N 34°33' E 135°27'0 0.0
2014-Apr-22 10:33N 34°33' E 135°27'0 0.0
2014-Apr-22 09:33N 34°33' E 135°27'1 0.5
2014-Apr-22 08:33N 34°33' E 135°26'0 0.1
2014-Apr-22 07:29N 34°33' E 135°26'4 4.3
2014-Apr-22 06:33N 34°33' E 135°21'4 3.9
2014-Apr-22 05:31N 34°33' E 135°26'1 0.6
2014-Apr-22 04:33N 34°33' E 135°27'0 0.0
2014-Apr-22 03:33N 34°33' E 135°27'0 0.0
2014-Apr-22 02:33N 34°33' E 135°27'1 1.5
2014-Apr-22 01:32N 34°33' E 135°25'3 3.2
2014-Apr-22 00:33N 34°33' E 135°21'1110.8
2014-Apr-21 23:34N 34°27' E 135°10'1413.1
2014-Apr-21 22:29N 34°16' E 134°59'6 6.2
2014-Apr-21 21:33N 34°11' E 135°01'1212.0
2014-Apr-21 20:33N 34°23' E 135°03'1413.5
2014-Apr-21 19:31N 34°30' E 135°17'8 8.7
2014-Apr-21 18:33N 34°33' E 135°27'0 0.0
2014-Apr-21 13:18N 34°33' E 135°27'0 0.0
2014-Apr-21 12:32N 34°33' E 135°27'0 0.0
2014-Apr-21 11:33N 34°33' E 135°27'0 0.0
2014-Apr-21 10:34N 34°33' E 135°27'0 0.0
2014-Apr-21 09:33N 34°33' E 135°27'0 0.0
2014-Apr-21 08:34N 34°33' E 135°27'0 0.0
2014-Apr-21 07:33N 34°33' E 135°27'0 0.0
2014-Apr-21 06:34N 34°33' E 135°27'0 0.0
2014-Apr-21 05:34N 34°33' E 135°27'0 0.0
2014-Apr-21 04:34N 34°33' E 135°27'0 0.0
2014-Apr-21 03:33N 34°33' E 135°27'0 0.0
2014-Apr-21 02:33N 34°33' E 135°27'0 0.0
2014-Apr-21 01:33N 34°33' E 135°27'0 0.0
2014-Apr-21 00:33N 34°33' E 135°27'1 1.1
2014-Apr-20 23:24N 34°33' E 135°25'1 0.9
2014-Apr-20 22:33N 34°33' E 135°25'5 4.7
2014-Apr-20 21:31N 34°34' E 135°19'6 6.3
2014-Apr-20 20:33N 34°33' E 135°27'0 0.0
2014-Apr-20 05:33N 34°33' E 135°27'0 0.0
2014-Apr-20 04:33N 34°33' E 135°27'0 0.0
2014-Apr-20 03:32N 34°33' E 135°27'3 3.2
2014-Apr-20 02:32N 34°31' E 135°24'2 1.9
2014-Apr-20 01:19N 34°29' E 135°22'3 3.3
2014-Apr-20 00:33N 34°31' E 135°21'5 5.3
2014-Apr-19 23:33N 34°33' E 135°27'0 0.0
2014-Apr-19 05:33N 34°33' E 135°27'0 0.0
2014-Apr-19 04:33N 34°33' E 135°27'2 1.7
2014-Apr-19 03:33N 34°33' E 135°25'1 0.8
2014-Apr-19 02:27N 34°33' E 135°25'1 1.4
2014-Apr-19 01:33N 34°33' E 135°27'0 0.0
2014-Apr-19 00:33N 34°33' E 135°27'0 0.0
2014-Apr-18 23:33N 34°33' E 135°27'0 0.0
2014-Apr-18 22:33N 34°33' E 135°27'0 0.0
2014-Apr-17 06:17N 34°33' E 135°27'5 6.9
2014-Apr-17 05:33N 34°33' E 135°21'4 3.3
2014-Apr-17 04:29N 34°33' E 135°25'0 0.1
2014-Apr-17 03:32N 34°33' E 135°25'0 0.1
2014-Apr-17 02:33N 34°33' E 135°25'0 0.1
2014-Apr-17 01:33N 34°33' E 135°25'0 0.2
2014-Apr-17 00:33N 34°33' E 135°25'0 0.1
2014-Apr-16 23:33N 34°33' E 135°25'0 0.0
2014-Apr-16 22:33N 34°33' E 135°25'0 0.1
2014-Apr-16 21:28N 34°33' E 135°25'0 0.1
2014-Apr-16 20:31N 34°33' E 135°25'0 0.0
2014-Apr-16 19:33N 34°33' E 135°25'0 0.0
2014-Apr-16 18:29N 34°33' E 135°25'0 0.1
2014-Apr-16 17:33N 34°33' E 135°25'0 0.1
2014-Apr-16 16:33N 34°33' E 135°25'0 0.2
2014-Apr-16 15:33N 34°33' E 135°25'0 0.1
2014-Apr-16 14:32N 34°33' E 135°25'0 0.0
2014-Apr-16 13:32N 34°33' E 135°25'0 0.1
2014-Apr-16 12:33N 34°33' E 135°25'0 0.1
2014-Apr-16 11:32N 34°33' E 135°25'0 0.0
2014-Apr-16 10:27N 34°33' E 135°25'0 0.0
2014-Apr-16 09:31N 34°33' E 135°25'0 0.0
2014-Apr-16 08:32N 34°33' E 135°25'0 0.0
2014-Apr-16 07:33N 34°33' E 135°25'0 0.1
2014-Apr-16 06:33N 34°33' E 135°25'0 0.1
2014-Apr-16 05:28N 34°33' E 135°25'0 0.0
2014-Apr-16 04:33N 34°33' E 135°25'0 0.0
2014-Apr-16 03:33N 34°33' E 135°25'0 0.1
2014-Apr-16 02:33N 34°33' E 135°25'0 0.1
2014-Apr-16 01:24N 34°33' E 135°25'3 3.5
2014-Apr-16 00:32N 34°33' E 135°21'2 2.1
2014-Apr-15 23:33N 34°32' E 135°19'6 6.0
2014-Apr-15 22:33N 34°33' E 135°27'0 0.0
2014-Apr-15 21:33N 34°33' E 135°27'0 0.0
2014-Apr-14 05:33N 34°33' E 135°27'  

Dump ship's entire track history

sailing weather and tide predictions

Ryuhomaru — JD2639 — position and weather